Weather History for Wolf Creek Pass, CO

Change the Weather History Date:

Friday, November 2, 2012

  Actual Average (KALS) Record (KALS)
Temperature  
Mean Temperature 30 °F 36 °F  
Max Temperature 33 °F 54 °F 68 °F (2008)
Min Temperature 28 °F 18 °F -21 °F (1991)
Degree Days  
Heating Degree Days 34 29  
Month to date heating degree days 57  
Since 1 July heating degree days 1167  
Cooling Degree Days 0 0  
Month to date cooling degree days 0  
Year to date cooling degree days 51  
Moisture  
Dew Point 6 °F    
Average Humidity 35    
Maximum Humidity 43    
Minimum Humidity 30    
Precipitation  
Precipitation 0.00 in 0.02 in 0.47 in (1990)
Month to date precipitation 0.04  
Year to date precipitation 6.58  
Snow  
Snow 0.00 in 0.10 in 1.00 in (1974)
Month to date snowfall 0.2  
Since 1 July snowfall 2.3  
Since 1 September snowfall 2.3  
Snow Depth -    
Sea Level Pressure  
Sea Level Pressure 30.33 in    
Wind  
Wind Speed 16 mph (SW)    
Max Wind Speed 22 mph    
Max Gust Speed 29 mph    
Visibility 10 miles    
Events      
T = Trace of Precipitation, MM = Missing Value Source: NWS Daily Summary

Daily Weather History Graph

Daily Weather History Graph

Search for Another Location

Airport:

Trip Planner

Search our weather history database for the weather conditions in past years. The results will help you decide how hot, cold, wet, or windy it might be!

Date:

Astronomy

Nov. 02, 2012 Rise Set
Actual Time 7:33 AM MDT 6:07 PM MDT
Civil Twilight 7:06 AM MDT 6:34 PM MDT
Nautical Twilight 6:35 AM MDT 7:05 PM MDT
Astronomical Twilight 6:04 AM MDT 7:35 PM MDT
Moon 8:59 PM MDT (11/2) 10:53 AM MDT (11/2)
Length of Visible Light 11h 28m
Length of Day
10h 33m
Waning Gibbous, 87% of the Moon is Illuminated
Nov 2
Waning Gibbous
Nov 6
Last Quarter
Nov 13
New
Nov 20
First Quarter
Nov 28
Full

Hourly Weather History & Observations

Time (MDT) Temp. Windchill Dew Point Humidity Pressure Visibility Wind Dir Wind Speed Gust Speed Precip Events Conditions
12:19 AM 32.0 °F 20.1 °F 5.0 °F 32% 30.32 in 10.0 mi SW 19.6 mph 27.6 mph N/A   Clear
12:39 AM 32.0 °F 19.5 °F 5.0 °F 32% 30.32 in 10.0 mi SW 21.9 mph 28.8 mph N/A   Clear
12:59 AM 32.0 °F 19.5 °F 5.0 °F 32% 30.32 in 10.0 mi SW 21.9 mph 27.6 mph N/A   Clear
1:19 AM 32.0 °F 20.5 °F 5.0 °F 32% 30.32 in 10.0 mi SW 18.4 mph 25.3 mph N/A   Clear
1:39 AM 32.0 °F 19.8 °F 3.2 °F 30% 30.32 in 10.0 mi SW 20.7 mph 27.6 mph N/A   Clear
1:59 AM 32.0 °F 20.5 °F 3.2 °F 30% 30.32 in 10.0 mi SW 18.4 mph 26.5 mph N/A   Clear
2:19 AM 32.0 °F 20.5 °F 3.2 °F 30% 30.32 in 10.0 mi SW 18.4 mph 24.2 mph N/A   Clear
2:39 AM 32.0 °F 20.5 °F 3.2 °F 30% 30.32 in 10.0 mi SW 18.4 mph - N/A   Clear
2:59 AM 30.2 °F 19.8 °F 3.2 °F 32% 30.32 in 10.0 mi SW 13.8 mph 19.6 mph N/A   Clear
3:19 AM 32.0 °F 21.6 °F 3.2 °F 30% 30.31 in 10.0 mi SW 15.0 mph 24.2 mph N/A   Clear
3:39 AM 30.2 °F 18.9 °F 3.2 °F 32% 30.31 in 10.0 mi SW 16.1 mph 21.9 mph N/A   Clear
3:59 AM 30.2 °F 18.5 °F 3.2 °F 32% 30.30 in 10.0 mi SW 17.3 mph 24.2 mph N/A   Clear
4:19 AM 30.2 °F 18.5 °F 5.0 °F 34% 30.30 in 10.0 mi SW 17.3 mph 25.3 mph N/A   Clear
4:39 AM 30.2 °F 18.9 °F 5.0 °F 34% 30.30 in 10.0 mi SW 16.1 mph 25.3 mph N/A   Clear
4:59 AM 30.2 °F 20.2 °F 5.0 °F 34% 30.31 in 10.0 mi SSW 12.7 mph - N/A   Clear
5:19 AM 30.2 °F 19.8 °F 5.0 °F 34% 30.30 in 10.0 mi SW 13.8 mph 18.4 mph N/A   Clear
5:39 AM 30.2 °F 20.2 °F 5.0 °F 34% 30.30 in 10.0 mi SW 12.7 mph 19.6 mph N/A   Clear
5:59 AM 30.2 °F 20.2 °F 5.0 °F 34% 30.31 in 10.0 mi SW 12.7 mph 20.7 mph N/A   Scattered Clouds
6:19 AM 30.2 °F 19.8 °F 5.0 °F 34% 30.31 in 10.0 mi SW 13.8 mph 20.7 mph N/A   Scattered Clouds
6:39 AM 30.2 °F 19.8 °F 5.0 °F 34% 30.31 in 10.0 mi SW 13.8 mph 18.4 mph N/A   Clear
6:59 AM 30.2 °F 18.9 °F 5.0 °F 34% 30.31 in 10.0 mi SW 16.1 mph - N/A   Clear
7:19 AM 28.4 °F 17.0 °F 5.0 °F 37% 30.31 in 10.0 mi SW 15.0 mph - N/A   Clear
7:39 AM 28.4 °F 17.5 °F 5.0 °F 37% 30.31 in 10.0 mi SW 13.8 mph - N/A   Scattered Clouds
7:59 AM 28.4 °F 17.0 °F 5.0 °F 37% 30.31 in 10.0 mi SW 15.0 mph - N/A   Scattered Clouds
8:19 AM 28.4 °F 16.6 °F 5.0 °F 37% 30.32 in 10.0 mi SW 16.1 mph - N/A   Clear
8:39 AM 30.2 °F 19.3 °F 5.0 °F 34% 30.32 in 10.0 mi SW 15.0 mph - N/A   Clear
8:59 AM 30.2 °F 19.8 °F 5.0 °F 34% 30.33 in 10.0 mi SW 13.8 mph - N/A   Clear
9:19 AM 30.2 °F 20.2 °F 5.0 °F 34% 30.34 in 10.0 mi SW 12.7 mph - N/A   Clear
9:39 AM 30.2 °F 19.3 °F 5.0 °F 34% 30.34 in 10.0 mi SW 15.0 mph 19.6 mph N/A   Clear
9:59 AM 32.0 °F 22.5 °F 5.0 °F 32% 30.34 in 10.0 mi SW 12.7 mph 18.4 mph N/A   Clear
10:19 AM 32.0 °F 21.6 °F 5.0 °F 32% 30.34 in 10.0 mi SW 15.0 mph - N/A   Clear
10:39 AM 32.0 °F 21.6 °F 5.0 °F 32% 30.34 in 10.0 mi SW 15.0 mph 20.7 mph N/A   Clear
10:59 AM 32.0 °F 22.1 °F 6.8 °F 35% 30.34 in 10.0 mi SSW 13.8 mph 20.7 mph N/A   Clear
11:19 AM 33.8 °F 23.2 °F 6.8 °F 32% 30.34 in 10.0 mi SW 17.3 mph 21.9 mph N/A   Clear
11:39 AM 33.8 °F 26.4 °F 6.8 °F 32% 30.34 in 10.0 mi SSW 9.2 mph 21.9 mph N/A   Clear
11:57 AM 33.8 °F 24.3 °F 6.8 °F 32% 30.34 in 10.0 mi SSW 13.8 mph 25.3 mph N/A   Clear
7:39 PM 30.2 °F 20.2 °F 6.8 °F 37% 30.34 in 10.0 mi SW 12.7 mph 18.4 mph N/A   Clear
7:59 PM 30.2 °F 20.2 °F 6.8 °F 37% 30.34 in 10.0 mi SW 12.7 mph - N/A   Clear
8:19 PM 30.2 °F 20.8 °F 6.8 °F 37% 30.34 in 10.0 mi SW 11.5 mph - N/A   Clear
8:39 PM 30.2 °F 20.8 °F 6.8 °F 37% 30.35 in 10.0 mi SW 11.5 mph - N/A   Clear
8:59 PM 30.2 °F 20.2 °F 6.8 °F 37% 30.35 in 10.0 mi SW 12.7 mph - N/A   Clear
9:19 PM 30.2 °F 19.3 °F 6.8 °F 37% 30.35 in 10.0 mi SW 15.0 mph - N/A   Clear
9:39 PM 30.2 °F 19.3 °F 6.8 °F 37% 30.35 in 10.0 mi SW 15.0 mph - N/A   Clear
9:59 PM 30.2 °F 19.8 °F 6.8 °F 37% 30.35 in 10.0 mi SW 13.8 mph - N/A   Clear
10:19 PM 28.4 °F 18.5 °F 6.8 °F 40% 30.35 in 10.0 mi SW 11.5 mph - N/A   Clear
10:39 PM 28.4 °F 18.5 °F 6.8 °F 40% 30.35 in 10.0 mi SW 11.5 mph - N/A   Clear
10:59 PM 28.4 °F 18.0 °F 8.6 °F 43% 30.35 in 10.0 mi SW 12.7 mph - N/A   Clear
11:19 PM 28.4 °F 18.5 °F 8.6 °F 43% 30.35 in 10.0 mi SW 11.5 mph - N/A   Clear
11:39 PM 28.4 °F 18.5 °F 8.6 °F 43% 30.35 in 10.0 mi SW 11.5 mph - N/A   Clear
11:59 PM 28.4 °F 18.0 °F 8.6 °F 43% 30.34 in 10.0 mi SW 12.7 mph - N/A   Clear